Location: Izdebno
(52.6670°N, 16.2170°E)
Time: 02:24:46
(UTC+02:00)

Transit 4A - Pass Details

Date: 02 March 2024
Orbit: 871 x 972 km, 66.8° (Epoch: 22 April)

Event Time Altitude Azimuth Distance (km) Brightness Sun altitude
Rises 07:40:23 0° 320° (NW) 3,512 10.4 8.1°
Reaches altitude 10° 07:42:55 10° 322° (NW) 2,558 9.7 8.5°
Maximum altitude 07:48:49 71° 47° (NE) 926 8.2 9.3°
Drops below altitude 10° 07:54:37 10° 132° (SE) 2,517 12.1 10.1°
Sets 07:57:06 0° 135° (SE) 3,452 12.5 10.4°
